[Iaude] MPEC V113: 2006 DC158 [a=3.06,e=0.53,i=6.9,H=19.1]

mpec at si.edu mpec at si.edu
Fri Nov 11 22:58:02 EST 2016


M.P.E.C. 2016-V113                               Issued 2016 Nov. 12, 03:54 UT
 
     The Minor Planet Electronic Circulars contain information on unusual
         minor planets and routine data on comets.  They are published
    on behalf of Division F of the International Astronomical Union by the
          Minor Planet Center, Smithsonian Astrophysical Observatory,
                          Cambridge, MA 02138, U.S.A.

             Prepared using the Tamkin Foundation Computer Network

                              MPC at CFA.HARVARD.EDU
            URL http://www.minorplanetcenter.net/    ISSN 1523-6714


                                  2006 DC158
 
Additional Observations:
     K06DF8C  S2016 11 09.81613 09 33 47.77 +23 39 33.8          20   RLEV113C51
     K06DF8C  s2016 11 09.81613 1 - 6048.4360 + 2357.4825 + 2225.2884   EV113C51
     K06DF8C  S2016 11 09.81625 09 33 47.77 +23 39 34.0                LEV113C51
     K06DF8C  s2016 11 09.81625 1 - 6069.0349 + 2377.8167 + 2146.5911   EV113C51
     K06DF8C  S2016 11 09.94716 09 34 12.00 +23 37 45.7                LEV113C51
     K06DF8C  s2016 11 09.94716 1 - 6059.1921 + 2348.8278 + 2205.2442   EV113C51
     K06DF8C  S2016 11 10.14364 09 34 48.23 +23 35 09.5                LEV113C51
     K06DF8C  s2016 11 10.14364 1 - 6064.7961 + 2325.6109 + 2214.4520   EV113C51
     K06DF8C  S2016 11 10.40570 09 35 36.63 +23 31 32.5                LEV113C51
     K06DF8C  s2016 11 10.40570 1 - 6086.1062 + 2308.0989 + 2174.2481   EV113C51
     K06DF8C  S2016 11 10.79880 09 36 49.30 +23 26 06.2                LEV113C51
     K06DF8C  s2016 11 10.79880 1 - 6117.6075 + 2281.4347 + 2113.6141   EV113C51
 
Observer details:
C51 WISE.  Measurers A. K. Mainzer, J. M. Bauer, T. Grav, J. R. Masiero,
    J. W. Dailey, R. M. Cutri, E. L. Wright, C. Nugent, S. Sonnett, E. Kramer.
 
First and last observations above in comparison with prediction:
Residuals in seconds of arc (or two decimals in degrees), reference and Delta-T
161109 C51 6.31- 3.62+    161110 C51 6.32- 3.67+    MPO201739    +10 day
 
Orbital elements:
2006 DC158
Epoch 2016 July 31.0 TT = JDT 2457600.5                 MPC
M 333.56098              (2000.0)            P               Q
n   0.18376444     Peri.  136.77286     -0.57921110     -0.81483199
a   3.0640445      Node   348.55368     +0.71154224     -0.49115312
e   0.5341704      Incl.    6.86900     +0.39777146     -0.30792442
P   5.36           H   19.1           G   0.15           U   3
Residuals in seconds of arc
060222 703  0.3+  0.1-    060303 691  0.4+  0.0     161109 C51  0.0   0.5+
060222 703 (0.4-  1.8+)   060303 691  0.3+  0.0     161109 C51  0.3-  0.7+
060222 703  1.0-  0.3+    060303 691  0.3+  0.0     161109 C51  0.3+  1.1-
060222 703  0.1+  0.5-    060323 G96  0.4-  0.0     161110 C51 (0.5-  2.8+)
060227 691  0.1+  0.3-    060323 G96  0.2+  0.1+    161110 C51  0.1+  0.0
060227 691  0.1+  0.1-    060323 G96  0.2+  0.1-    161110 C51 (3.0+  3.3-)
060227 691  0.1+  0.1+    060323 G96  0.0   0.0

Ephemeris:
2006 DC158               a,e,i = 3.06, 0.53, 7                   q = 1.4273
Date    TT    R. A. (2000) Decl.     Delta      r     Elong.  Phase     V
2016 10 13    08 05 37.9 +28 23 42   1.3895  1.5992    82.4    38.2    22.4
...
2016 10 28    08 53 36.4 +26 14 12   1.2393  1.5371    86.3    40.2    22.1
...
2016 11 05    09 18 50.9 +24 42 09   1.1671  1.5087    88.3    41.1    21.9
...
2016 11 11    09 37 26.1 +23 23 23   1.1167  1.4899    89.8    41.6    21.8
2016 11 12    09 40 29.9 +23 09 30   1.1086  1.4870    90.1    41.7    21.8
2016 11 13    09 43 33.0 +22 55 24   1.1006  1.4841    90.3    41.8    21.8
...
2016 11 19    10 01 36.0 +21 26 42   1.0544  1.4683    91.9    42.3    21.7
...
2016 11 27    10 24 50.7 +19 18 45   0.9972  1.4510    94.0    42.7    21.6
...
2016 12 12    11 05 06.7 +14 58 09   0.9031  1.4311    98.5    42.9    21.3

A. U. Tomatic                (C) Copyright 2016 MPC           M.P.E.C. 2016-V113




More information about the Iaude mailing list